Location: Bodest
(46.3000°N, 22.5667°E)
Time: 20:05:55
(UTC+00:00)

Cosmos 1626 Rocket - Pass Details

Date: 28 May 2022
Orbit: 602 x 631 km, 82.5° (Epoch: 24 June)

Event Time Altitude Azimuth Distance (km) Brightness Sun altitude
Rises 01:08:05 0° 148° (SSE) 2,889 6.8 -13.1°
Reaches altitude 10° 01:10:50 10° 130° (SE) 1,983 6.1 -12.8°
Maximum altitude 01:13:54 19° 86° (E) 1,488 6.1 -12.5°
Drops below altitude 10° 01:16:57 10° 42° (NE) 1,981 7.7 -12.1°
Sets 01:19:41 0° 24° (NNE) 2,886 8.6 -11.8°
